This demonstration page uses our WeatherBlox Daily Observations layout. Learn more.

Left ArrowRight Arrow

38.80484, -77.04692

Hourly Observations for May 9, 2021

Temp ( °F °C ) Dew Point ( °F °C ) Humidity (%) Winds ( mph kmh ) Pressure ( in mb ) Visibility ( mi km ) Precip ( " mm )
12:52 am 00:52 Partly Cloudy 51 10.6 35 1.7 54 54 N N/A 30.11 1020 10 16 N/A
1:52 am 01:52 Mostly Cloudy 48 8.9 36 2.2 63 63 NNW 6 9 30.10 1019 10 16 N/A
2:52 am 02:52 Cloudy 48 8.9 38 3.3 68 68 NNW 7 11 30.10 1019 10 16 N/A
3:52 am 03:52 Cloudy 49 9.4 37 2.8 64 64 WSW 3 6 30.11 1020 10 16 N/A
4:52 am 04:52 Cloudy 50 10 36 2.2 59 59 N 5 7 30.14 1021 10 16 N/A
5:52 am 05:52 Cloudy 50 10 37 2.8 61 61 N 13 20 30.11 1020 10 16 N/A
6:52 am 06:52 Mostly Cloudy 50 10 38 3.3 63 63 SSW 7 11 30.14 1021 10 16 N/A
7:52 am 07:52 Mostly Cloudy 51 10.6 38 3.3 61 61 SSW 6 9 30.14 1021 10 16 N/A
8:52 am 08:52 Cloudy 52 11.1 40 4.4 64 64 SW 6 9 30.15 1021 10 16 N/A
9:52 am 09:52 Cloudy 54 12.2 42 5.6 64 64 S 8 13 30.13 1020 10 16 N/A
10:52 am 10:52 Cloudy 55 12.8 40 4.4 57 57 S 8 13 30.12 1020 10 16 N/A
11:52 am 11:52 Mostly Cloudy 59 15 41 5 51 51 SSW 6 9 30.09 1019 10 16 N/A
12:52 pm 12:52 Mostly Cloudy 61 16.1 39 3.9 44 44 SSE 10 17 30.04 1017 10 16 N/A
1:52 pm 13:52 Mostly Cloudy 64 17.8 39 3.9 40 40 S 14 22 29.98 1015 10 16 N/A
2:52 pm 14:52 Mostly Cloudy 68 20 44 6.7 42 42 SSE 12 19 29.94 1014 10 16 N/A
3:52 pm 15:52 Mostly Cloudy 67 19.4 46 7.8 47 47 S 17 28 29.90 1012 10 16 N/A
5:52 pm 17:52 Cloudy 68 20 49 9.4 51 51 SSE 8 13 29.81 1010 10 16 N/A
6:52 pm 18:52 Cloudy 67 19.4 50 10 55 55 SE 12 19 29.77 1008 10 16 N/A
7:52 pm 19:52 Cloudy 64 17.8 49 9.4 58 58 SSE 9 15 29.78 1008 10 16 N/A
8:52 pm 20:52 Cloudy 64 17.8 50 10 60 60 SSE 8 13 29.76 1008 10 16 N/A
9:52 pm 21:52 Cloudy 64 17.8 53 11.7 68 68 S 8 13 29.74 1007 10 16 N/A
10:52 pm 22:52 Mostly Cloudy 63 17.2 54 12.2 73 73 SSW 7 11 29.72 1007 10 16 N/A
11:52 pm 23:52 Partly Cloudy 63 17.2 53 11.7 70 70 SW 7 11 29.70 1006 10 16 N/A

Powered by AerisWeather